Location: Austin
(30.3000°N, 97.7500°W)
Time: 07:33:35
(UTC-05:00)

Resurs 1-4 Rocket - Pass Details

Date: 16 June 2025
Orbit: 798 x 812 km, 98.8° (Epoch: 08 July)

Event Time Altitude Azimuth Distance (km) Brightness Sun altitude
Rises 03:06:16 0° 23° (NNE) 3,311 6.4 -31.7°
Reaches altitude 10° 03:08:46 10° 32° (NNE) 2,379 5.4 -31.5°
Enters shadow 03:13:16 37° 90° (E) 1,233 3.2 -31.1°
